Year,Month,Day,Hour,Minute,Value (Times are PST for temperature in C)
2016,11,18,09,48,8.40
2016,11,18,09,49,8.40
2016,11,18,09,50,8.40
2016,11,18,09,51,8.40
2016,11,18,09,52,8.40
2016,11,18,09,53,8.40
2016,11,18,09,54,8.40
2016,11,18,09,55,8.40
2016,11,18,09,56,8.50
2016,11,18,09,57,8.50
2016,11,18,09,58,8.50
2016,11,18,09,59,8.50
2016,11,18,10,00,8.50
2016,11,18,10,01,8.50
2016,11,18,10,02,8.50
2016,11,18,10,03,8.50
2016,11,18,10,04,8.50
2016,11,18,10,05,8.50
2016,11,18,10,06,8.50
2016,11,18,10,07,8.50
2016,11,18,10,08,8.50
2016,11,18,10,09,8.50
2016,11,18,10,10,8.60
2016,11,18,10,11,8.60
2016,11,18,10,12,8.60
2016,11,18,10,13,8.60
2016,11,18,10,14,8.60
2016,11,18,10,15,8.60
2016,11,18,10,16,8.60
2016,11,18,10,17,8.60
2016,11,18,10,18,8.60
2016,11,18,10,19,8.60
2016,11,18,10,20,8.60
2016,11,18,10,21,8.70
2016,11,18,10,22,8.70
2016,11,18,10,23,8.70
2016,11,18,10,24,8.70
2016,11,18,10,25,8.70
2016,11,18,10,26,8.70
2016,11,18,10,27,8.70
2016,11,18,10,28,8.70
2016,11,18,10,29,8.70
2016,11,18,10,30,8.70
2016,11,18,10,31,8.70
2016,11,18,10,32,8.70
2016,11,18,10,33,8.70
2016,11,18,10,34,8.70
2016,11,18,10,35,8.70
2016,11,18,10,36,8.70
2016,11,18,10,37,8.70
2016,11,18,10,38,8.80
2016,11,18,10,39,8.80
2016,11,18,10,40,8.80
2016,11,18,10,41,8.80
2016,11,18,10,42,8.80
2016,11,18,10,43,8.80
2016,11,18,10,44,8.80
2016,11,18,10,45,8.90
2016,11,18,10,46,8.90
2016,11,18,10,47,8.90
2016,11,18,10,48,8.90
2016,11,18,10,49,9.00
2016,11,18,10,50,9.00
2016,11,18,10,51,9.00
2016,11,18,10,52,9.00
2016,11,18,10,53,9.00
2016,11,18,10,54,9.00
2016,11,18,10,55,9.00
2016,11,18,10,56,9.00
2016,11,18,10,57,9.00
2016,11,18,10,58,9.00
2016,11,18,10,59,9.10
2016,11,18,11,00,9.10
2016,11,18,11,01,9.10
2016,11,18,11,02,9.10
2016,11,18,11,03,9.10
2016,11,18,11,04,9.10
2016,11,18,11,05,9.10
2016,11,18,11,06,9.10
2016,11,18,11,07,9.10
2016,11,18,11,08,9.10
2016,11,18,11,09,9.20
2016,11,18,11,10,9.20
2016,11,18,11,11,9.20
2016,11,18,11,12,9.20
2016,11,18,11,13,9.20
2016,11,18,11,14,9.20
2016,11,18,11,15,9.20
2016,11,18,11,16,9.20
2016,11,18,11,17,9.20
2016,11,18,11,18,9.20
2016,11,18,11,19,9.20
2016,11,18,11,20,9.20
2016,11,18,11,21,9.30
2016,11,18,11,22,9.30
2016,11,18,11,23,9.30
2016,11,18,11,24,9.30
2016,11,18,11,25,9.30
2016,11,18,11,26,9.20
2016,11,18,11,27,9.30
2016,11,18,11,28,9.30
2016,11,18,11,29,9.30
2016,11,18,11,30,9.30
2016,11,18,11,31,9.20
2016,11,18,11,32,9.30
2016,11,18,11,33,9.30
2016,11,18,11,34,9.30
2016,11,18,11,35,9.30
2016,11,18,11,36,9.30
2016,11,18,11,37,9.30
2016,11,18,11,38,9.30
2016,11,18,11,39,9.30
2016,11,18,11,40,9.30
2016,11,18,11,41,9.30
2016,11,18,11,42,9.30
2016,11,18,11,43,9.30
2016,11,18,11,44,9.30
2016,11,18,11,45,9.30
2016,11,18,11,46,9.30
2016,11,18,11,47,9.40
2016,11,18,11,48,9.30
2016,11,18,11,49,9.30
2016,11,18,11,50,9.30
2016,11,18,11,51,9.30
2016,11,18,11,52,9.30
2016,11,18,11,53,9.30
2016,11,18,11,54,9.30
2016,11,18,11,55,9.30
2016,11,18,11,56,9.30
2016,11,18,11,57,9.30
2016,11,18,11,58,9.30
2016,11,18,11,59,9.30
2016,11,18,12,00,9.30
2016,11,18,12,01,9.30
2016,11,18,12,02,9.30
2016,11,18,12,03,9.30
2016,11,18,12,04,9.30
2016,11,18,12,05,9.30
2016,11,18,12,06,9.30
2016,11,18,12,07,9.30
2016,11,18,12,08,9.30
2016,11,18,12,09,9.30
2016,11,18,12,10,9.30
2016,11,18,12,11,9.30
2016,11,18,12,12,9.30
2016,11,18,12,13,9.30
2016,11,18,12,14,9.30
2016,11,18,12,15,9.30
2016,11,18,12,16,9.30
2016,11,18,12,17,9.30
2016,11,18,12,18,9.30
2016,11,18,12,19,9.20
2016,11,18,12,20,9.20
2016,11,18,12,21,9.20
2016,11,18,12,22,9.20
2016,11,18,12,23,9.20
2016,11,18,12,24,9.20
2016,11,18,12,25,9.20
2016,11,18,12,26,9.20
2016,11,18,12,27,9.20
2016,11,18,12,28,9.30
2016,11,18,12,29,9.30
2016,11,18,12,30,9.30
2016,11,18,12,31,9.30
2016,11,18,12,32,9.30
2016,11,18,12,33,9.30
2016,11,18,12,34,9.30
2016,11,18,12,35,9.30
2016,11,18,12,36,9.30
2016,11,18,12,37,9.30
2016,11,18,12,38,9.40
2016,11,18,12,39,9.40
2016,11,18,12,40,9.40
2016,11,18,12,41,9.40
2016,11,18,12,42,9.40
2016,11,18,12,43,9.40
2016,11,18,12,44,9.40
2016,11,18,12,45,9.50
2016,11,18,12,46,9.50
2016,11,18,12,47,9.50
2016,11,18,12,48,9.50
2016,11,18,12,49,9.50
2016,11,18,12,50,9.50
2016,11,18,12,51,9.50
2016,11,18,12,52,9.50
2016,11,18,12,53,9.50
2016,11,18,12,54,9.50
2016,11,18,12,55,9.50
2016,11,18,12,56,9.50
2016,11,18,12,57,9.50
